sat.trackr.live / text

‹ back to catalog

STARLINK-30801

NORAD 58184 · 2023-167K

PAYLOAD ACTIVE UNKNOWN

§ Identity

Operator
Country
US
Launch date
2023-10-30
Launch site
AFETR
Launch vehicle
Mass (kg)
RCS (m²)

Purposes: comms

External: N2YO · Heavens-Above · Gunter

§ Orbital elements

Epoch: 2026-09-20T00:56:54.346560Z

Period
94.27 min
Inclination
42.9963°
Eccentricity
0.0000528
Mean motion
15.27579015 rev/d
Perigee alt
482.7 km
Apogee alt
483.4 km
Semi-major
6,861.2 km
B*
9.3356e-6
RAAN
126.2185°
Arg perigee
289.6987°
Mean anomaly
70.3808°
Rev number
16,070

§ Raw data

STARLINK-308011 58184U 23167K   26263.03951790 -.00000005  00000+0  93356-5 0  99942 58184  42.9963 126.2185 0000528 289.6987  70.3808 15.27579015160702

JSON: /api/v1/satellites/58184 · /tle

For live sub-satellite position, see the globe view (requires WebGL).

§ Visibility from observer

Set your observer location to see the next 7 days of passes ≥ 10°. The values pass through the URL so the page stays shareable.

No JS? Fill the form by hand. The geolocation button needs JavaScript.